Wind_Speed
4 4 7 10 15 18 19 19 19 19 20 20 21 21 22 21 21 20 18 17 16 16 15 15 14 14 14 13 12 11 9 9
9 8 10 13 14 16 18 19 20 20 21 21 22 23 23 24 24 23 22 20 19 18 17 16 15 15 15 15 14 13 12 11
11 12 13 14 16 16 16 18 19 21 23 23 23 24 24 26 27 26 25 24 22 21 20 18 17 17 17 17 17 15 12 12
11 12 14 16 18 19 18 19 18 20 22 24 26 25 20 20 23 28 27 26 25 24 22 21 20 18 18 20 20 15 14 14
14 16 16 18 18 20 19 16 14 16 19 20 24 26 27 27 21 22 29 29 28 28 27 26 25 20 18 17 17 17 16 15
16 16 16 17 16 18 18 16 17 18 18 20 21 23 25 26 27 27 21 22 24 26 25 26 25 23 22 21 20 18 17 16
16 17 19 16 16 17 19 20 23 21 20 21 20 21 23 25 26 27 28 27 27 26 29 26 27 26 24 24 23 22 21 19
13 14 15 18 16 19 21 21 20 21 22 20 19 19 21 22 25 27 27 27 27 27 32 31 29 29 31 29 26 24 22 22
14 13 14 15 16 21 23 24 23 23 22 21 19 19 21 21 20 22 25 27 29 31 31 31 31 33 34 34 35 33 27 25
14 13 10 9 14 17 15 21 21 20 19 21 20 22 22 23 24 25 26 27 29 29 29 32 33 32 33 34 35 34 34 32
11 12 12 11 9 9 9 12 12 12 14 15 17 20 22 21 21 23 25 27 29 30 32 33 33 34 35 36 38 35 35 35
10 11 12 10 9 10 7 5 7 8 10 13 13 14 16 17 17 20 22 21 22 25 30 31 36 39 36 42 46 37 30 30
10 10 9 11 10 7 10 9 5 5 6 9 11 14 16 15 15 17 19 20 20 22 22 23 28 34 35 39 37 31 46 36
12 11 9 8 6 6 5 7 10 8 8 8 9 11 13 15 17 19 20 22 24 24 23 21 21 22 26 28 24 29 33 45
17 16 13 10 8 8 7 7 7 8 10 12 13 13 13 14 17 19 20 21 22 23 25 26 20 21 22 21 11 16 22 29
13 14 14 14 15 14 11 8 8 12 11 15 14 13 15 17 18 20 21 22 21 22 22 23 25 27 21 28 32 26 22 22
8 10 11 12 13 16 17 14 14 12 13 17 20 17 14 16 16 17 20 20 22 21 21 21 21 22 27 21 26 28 33 30
12 11 12 11 11 13 15 15 17 18 18 18 22 23 19 16 16 16 17 19 20 21 21 20 21 22 24 23 27 26 24 30
12 13 13 14 14 13 13 12 12 14 17 23 22 24 20 18 17 17 17 19 20 21 22 21 20 22 24 26 28 28 36 31
12 12 12 13 13 14 14 15 15 14 13 12 13 18 19 20 18 16 16 16 18 19 19 18 20 22 24 26 29 30 29 27
Wind_Direction
243 241 237 233 236 238 239 239 239 239 240 239 237 233 230 229 229 227 227 227 228 229 228 225 225 226 234 237 239 239 215 219
262 255 250 249 244 242 243 243 243 243 242 242 242 240 237 234 232 230 229 229 230 231 233 232 231 230 234 237 238 240 235 234
288 277 270 261 260 256 252 250 246 244 245 245 243 241 239 236 235 234 231 231 231 232 232 234 235 233 233 238 239 239 240 234
304 294 271 266 257 253 252 250 247 249 248 245 243 243 240 239 239 237 235 234 233 233 233 234 235 234 238 235 239 233 239 237
318 290 277 266 258 249 246 242 241 243 244 243 247 247 247 247 239 246 237 235 235 235 230 231 232 227 234 238 236 233 237 243
294 292 279 265 252 251 240 235 240 245 257 258 256 253 246 245 246 245 235 233 237 230 233 230 230 230 228 234 235 233 238 240
289 277 274 254 257 247 241 241 245 254 262 266 262 256 253 249 245 244 247 247 242 237 234 234 235 232 234 234 236 238 234 235
293 276 266 254 237 235 243 244 249 253 255 262 276 263 257 257 252 249 247 245 246 250 247 242 242 244 241 241 239 239 242 241
307 290 271 253 236 233 233 237 239 247 246 251 258 253 257 258 254 256 256 254 250 249 249 250 246 248 251 250 250 248 241 237
321 311 300 279 245 242 234 237 238 242 241 244 241 243 245 252 255 256 256 256 253 254 255 256 252 246 249 250 251 248 250 246
316 307 296 288 273 243 236 234 229 226 233 235 239 244 246 249 252 262 263 262 261 260 253 253 254 254 251 250 246 245 242 244
332 319 309 297 290 271 256 257 252 244 246 249 247 248 251 255 260 263 266 270 268 264 259 259 255 253 261 257 250 243 253 251
355 349 330 310 302 283 273 271 291 266 266 267 267 269 268 266 268 269 265 265 267 259 258 260 259 257 262 260 257 252 256 232
6 5 6 360 338 321 323 302 284 282 278 292 282 274 273 272 273 271 272 268 266 264 263 264 264 257 258 255 254 255 247 252
13 7 2 3 14 22 27 350 349 314 309 301 302 297 286 282 278 278 278 274 271 268 266 260 264 259 248 241 244 252 261 249
13 10 7 5 356 348 343 3 353 354 350 331 319 311 301 294 288 284 283 281 277 274 267 262 259 259 261 242 245 255 256 253
340 358 359 352 352 349 341 326 327 318 334 337 332 321 313 304 297 290 286 282 280 278 273 266 258 258 260 256 254 259 251 254
352 342 337 343 347 342 339 343 333 316 315 326 333 329 328 316 310 306 295 289 283 280 276 270 263 258 256 260 252 252 254 257
0 3 1 353 339 328 323 321 317 319 307 292 315 318 320 319 321 312 304 293 289 287 281 277 269 266 261 261 256 259 251 256
353 360 356 355 348 346 346 339 344 336 332 307 303 310 319 319 321 321 315 309 299 293 290 288 280 274 269 267 264 259 257 254
Height
1521 1521 1521 1522 1522 1524 1524 1525 1527 1528 1529 1530 1530 1530 1530 1532 1534 1535 1537 1538 1539 1540 1540 1541 1542 1542 1542 1543 1543 1543 1546 1547
1519 1519 1519 1521 1521 1521 1522 1523 1524 1525 1526 1527 1528 1529 1529 1530 1531 1532 1533 1535 1536 1537 1539 1539 1540 1541 1541 1541 1541 1542 1542 1546
1518 1518 1518 1518 1519 1519 1520 1520 1520 1521 1522 1523 1525 1525 1526 1527 1527 1528 1530 1531 1532 1534 1535 1537 1538 1538 1539 1539 1539 1540 1541 1543
1515 1515 1515 1515 1516 1517 1517 1517 1516 1517 1517 1518 1519 1521 1523 1525 1525 1525 1527 1528 1529 1530 1531 1533 1534 1536 1536 1536 1536 1539 1540 1541
1513 1511 1511 1512 1512 1513 1513 1514 1514 1514 1514 1515 1515 1516 1517 1519 1521 1521 1522 1523 1523 1524 1526 1528 1529 1533 1536 1535 1534 1535 1537 1538
1508 1507 1507 1507 1509 1510 1511 1511 1510 1510 1510 1511 1512 1512 1512 1513 1514 1516 1518 1520 1519 1520 1522 1523 1524 1527 1530 1532 1531 1532 1533 1533
1504 1503 1502 1502 1505 1508 1506 1505 1506 1507 1507 1507 1508 1508 1509 1509 1508 1510 1512 1514 1514 1515 1516 1518 1519 1521 1523 1525 1526 1527 1527 1528
1498 1497 1496 1496 1499 1501 1502 1502 1502 1503 1503 1504 1505 1504 1504 1504 1504 1505 1505 1507 1509 1510 1510 1512 1514 1515 1516 1517 1519 1520 1523 1524
1495 1492 1491 1491 1494 1495 1496 1495 1496 1496 1497 1499 1501 1500 1500 1501 1501 1501 1501 1501 1503 1504 1504 1506 1507 1507 1509 1510 1512 1513 1514 1516
1493 1492 1490 1489 1489 1490 1491 1491 1491 1491 1492 1493 1493 1495 1495 1495 1496 1497 1496 1495 1496 1497 1497 1498 1498 1500 1500 1501 1502 1504 1505 1506
1495 1493 1491 1490 1489 1488 1488 1488 1488 1488 1488 1488 1489 1490 1490 1490 1490 1492 1491 1491 1491 1491 1490 1491 1491 1491 1492 1492 1491 1490 1492 1494
1497 1495 1492 1490 1488 1488 1488 1487 1487 1486 1486 1486 1486 1486 1486 1487 1487 1486 1486 1487 1486 1485 1485 1485 1484 1484 1483 1480 1476 1481 1485 1492
1498 1496 1493 1490 1488 1488 1488 1487 1486 1485 1484 1484 1484 1484 1483 1483 1482 1481 1481 1481 1482 1480 1478 1478 1478 1478 1477 1473 1470 1469 1476 1482
1498 1494 1492 1491 1490 1488 1487 1486 1486 1485 1483 1482 1481 1480 1480 1479 1478 1477 1475 1474 1475 1475 1473 1473 1473 1473 1471 1470 1464 1464 1463 1467
1498 1496 1494 1492 1490 1489 1486 1485 1485 1483 1483 1482 1480 1478 1475 1474 1473 1472 1472 1470 1470 1469 1468 1466 1467 1469 1468 1468 1465 1461 1463 1460
1499 1497 1495 1493 1491 1490 1487 1486 1485 1480 1479 1479 1477 1475 1473 1471 1471 1469 1468 1466 1464 1464 1462 1461 1460 1459 1462 1461 1460 1461 1459 1458
1499 1497 1495 1492 1489 1487 1485 1484 1481 1479 1476 1475 1473 1473 1470 1468 1468 1466 1465 1462 1460 1458 1458 1457 1456 1455 1455 1456 1455 1454 1453 1454
1500 1497 1494 1491 1488 1485 1484 1480 1478 1476 1472 1473 1467 1468 1465 1466 1465 1463 1460 1457 1455 1453 1453 1452 1451 1450 1449 1449 1449 1449 1448 1448
1500 1497 1495 1490 1487 1485 1483 1480 1476 1474 1469 1467 1466 1466 1465 1463 1461 1458 1456 1452 1449 1449 1448 1445 1445 1445 1443 1443 1443 1442 1442 1441
1499 1496 1493 1489 1486 1483 1482 1477 1473 1469 1467 1466 1464 1463 1462 1459 1457 1456 1452 1448 1446 1444 1442 1439 1438 1438 1436 1436 1434 1435 1435 1434